[[{"header":{"parameterUnit":"m.s-1","parameterCategory":1,"la1":30.2991,"la2":30.254,"lo1":-89.0895,"lo2":-89.0444,"dy":0.0017,"dx":0.0017,"nx":28,"ny":28,"refTime":"2025-03-11T09:00:00:Z","depth":0,"parameterNumber":2,"parameterNumberName":"U-component_of_WINDS"},"data":[0,0,0,0,0,0,0,0,0,0,0,0,0,0,0,0,0,0,0,0,0,0,0,0,0,0,0,0,0,0,0,0,0,0,0,0,0,0,0,0,0,0,0,0,0,0,0,0,0,0,0,0,0,0,0,0,0,0,-0.1981,-0.198,0,-0.1931,-0.1931,-0.193,-0.1923,-0.1924,-0.1924,-0.1925,-0.1877,-0.1875,-0.1873,0,0,0,0,0,0,0,0,0,0,0,0,0,-0.2072,-0.207,-0.1981,-0.198,-0.1979,-0.1931,-0.1931,-0.193,-0.1923,-0.1924,-0.1924,-0.1925,-0.1877,-0.1875,-0.1873,0,0,0,0,0,0,0,0,0,0,0,0,0,-0.2029,-0.207,-0.1981,-0.197,-0.1969,-0.1931,-0.1931,-0.193,-0.1923,-0.1924,-0.1924,-0.1925,-0.1878,-0.1875,-0.1873,-0.1844,0,0,-0.1865,-0.1864,0,0,0,0,0,0,0,0,-0.2031,-0.2025,-0.1972,-0.1971,-0.1969,-0.1934,-0.1945,-0.1901,-0.1923,-0.1941,-0.1925,-0.1925,-0.1895,-0.1891,-0.1881,-0.1841,-0.1839,-0.1865,-0.1863,-0.1862,-0.1862,0,0,0,0,0,0,0,-0.2034,-0.2027,-0.1961,-0.1972,-0.197,-0.1969,-0.1963,-0.1937,-0.1915,-0.1939,-0.1938,-0.1933,-0.1895,-0.1883,-0.188,-0.1839,-0.1865,-0.1863,-0.1861,-0.186,-0.1774,-0.1773,0,0,0,0,0,0,-0.2039,-0.203,-0.1963,-0.196,-0.2002,-0.1967,-0.1961,-0.1945,-0.1915,-0.1911,-0.1932,-0.1932,-0.1887,-0.1883,-0.1878,-0.1842,-0.1862,-0.186,-0.1858,-0.1774,-0.1773,-0.1773,0,0,0,0,0,0,-0.2041,-0.2033,-0.1965,-0.1995,-0.1986,-0.1964,-0.1947,-0.1943,-0.1932,-0.191,-0.1906,-0.1924,-0.1888,-0.1882,-0.1852,-0.184,-0.1859,-0.1856,-0.1775,-0.1774,-0.1773,-0.177,0,0,0,0,0,0,-0.2043,-0.2033,-0.2021,-0.1994,-0.1984,-0.1939,-0.1946,-0.1942,-0.1927,-0.1927,-0.1901,-0.1898,-0.1888,-0.1856,-0.185,-0.1837,-0.1855,-0.1776,-0.1775,-0.1773,-0.1771,-0.1769,-0.1767,0,0,0,0,0,-0.2046,-0.2023,-0.2021,-0.2013,-0.1969,-0.1938,-0.1933,-0.1921,-0.1926,-0.1914,-0.19,-0.1899,-0.1843,-0.1853,-0.1846,-0.1832,-0.1777,-0.1775,-0.1774,-0.1772,-0.1769,-0.1767,0,0,0,0,0,0,-0.205,-0.2019,-0.2016,-0.1983,-0.1963,-0.1937,-0.1922,-0.1918,-0.1897,-0.1898,-0.1885,-0.1879,-0.1851,-0.1839,-0.1851,-0.1803,-0.181,-0.1807,-0.1812,-0.1809,-0.1807,-0.181,-0.1852,0,0,0,0,0,-0.2047,-0.2024,-0.1998,-0.1971,-0.1961,-0.1943,-0.193,-0.1922,-0.1901,-0.1893,-0.1877,-0.1858,-0.1836,-0.1822,-0.18,-0.1769,-0.1764,-0.1756,-0.1754,-0.1753,-0.175,-0.1734,-0.173,-0.1767,-0.1767,-0.1767,0,0,-0.204,-0.202,-0.2007,-0.1972,-0.1955,-0.1933,-0.1936,-0.1912,-0.1896,-0.189,-0.1861,-0.1849,-0.1826,-0.1796,-0.1782,-0.1785,-0.1739,-0.1751,-0.175,-0.1748,-0.1731,-0.1728,-0.1725,-0.1766,-0.1766,-0.1766,0,0,-0.2016,-0.1999,-0.1974,-0.1958,-0.1933,-0.1921,-0.1915,-0.189,-0.1881,-0.1851,-0.1847,-0.1828,-0.179,-0.1774,-0.1762,-0.1732,-0.173,-0.1726,-0.1715,-0.1699,-0.1696,-0.1694,-0.1684,-0.168,-0.1723,-0.1723,-0.1723,0,-0.2011,-0.1976,-0.1963,-0.1938,-0.1924,-0.1917,-0.1893,-0.1878,-0.1847,-0.1838,-0.1842,-0.1794,-0.1779,-0.1745,-0.1738,-0.1728,-0.1722,-0.1729,-0.1697,-0.1695,-0.1692,-0.1682,-0.1679,-0.1723,-0.1723,-0.1723,-0.1723,0,-0.1971,-0.1947,-0.1931,-0.19,-0.1884,-0.186,-0.1844,-0.1829,-0.1823,-0.1811,-0.1782,-0.1763,-0.1738,-0.173,-0.1724,-0.1695,-0.1698,-0.17,-0.1707,-0.1688,-0.1679,-0.1675,-0.1722,-0.1723,-0.1723,-0.1723,0,0,-0.1948,-0.1911,-0.1905,-0.1892,-0.1864,-0.1845,-0.1822,-0.1796,-0.1784,-0.1763,-0.1744,-0.1712,-0.1714,-0.1699,-0.1692,-0.1678,-0.1656,-0.1681,-0.168,-0.1677,-0.1624,-0.1623,-0.1619,-0.1655,-0.1654,-0.1653,-0.1626,0,-0.1921,-0.1877,-0.1865,-0.1828,-0.1806,-0.18,-0.1779,-0.1761,-0.1749,-0.1729,-0.1717,-0.1695,-0.1698,-0.169,-0.1675,-0.1662,-0.1646,-0.1664,-0.1637,-0.1637,-0.1643,-0.1614,-0.1613,-0.1588,-0.1623,-0.1622,-0.1622,0,-0.1884,-0.1862,-0.1823,-0.1798,-0.1788,-0.177,-0.1746,-0.1727,-0.1706,-0.1699,-0.1682,-0.1676,-0.1653,-0.1661,-0.1629,-0.1641,-0.163,-0.1622,-0.1621,-0.1618,-0.1628,-0.1611,-0.158,-0.1576,-0.1616,-0.1616,-0.1617,0,-0.1871,-0.1832,-0.1803,-0.1792,-0.1762,-0.175,-0.1737,-0.1716,-0.1702,-0.1682,-0.1672,-0.165,-0.1637,-0.1621,-0.1609,-0.1616,-0.1578,-0.1585,-0.1572,-0.1572,-0.1564,-0.1565,-0.1531,-0.1556,-0.1556,-0.1556,-0.1557,0,-0.1843,-0.1819,-0.1797,-0.178,-0.1754,-0.174,-0.1715,-0.1703,-0.1684,-0.1665,-0.1659,-0.1641,-0.1627,-0.1608,-0.1599,-0.1573,-0.1568,-0.1562,-0.156,-0.1563,-0.1563,-0.1555,-0.1557,-0.1555,-0.1556,-0.1556,-0.1556,0,-0.1824,-0.1808,-0.1777,-0.1751,-0.1744,-0.1726,-0.1705,-0.1688,-0.1677,-0.1652,-0.1646,-0.1628,-0.1605,-0.1592,-0.1563,-0.1557,-0.153,-0.1528,-0.1536,-0.1535,-0.1523,-0.1524,-0.1483,-0.1477,-0.1506,-0.1506,-0.1505,0,-0.1807,-0.1789,-0.1761,-0.1747,-0.1734,-0.1711,-0.1697,-0.1683,-0.1668,-0.1643,-0.163,-0.1606,-0.1587,-0.1551,-0.1536,-0.1514,-0.1512,-0.1499,-0.1509,-0.1512,-0.1513,-0.1514,-0.1512,-0.1498,-0.1497,-0.1497,-0.1497,0,-0.1778,-0.1771,-0.175,-0.1725,-0.1707,-0.1688,-0.1668,-0.1658,-0.1641,-0.1625,-0.1601,-0.1586,-0.1556,-0.1533,-0.151,-0.1499,-0.1495,-0.1494,-0.149,-0.1492,-0.1498,-0.1495,-0.1532,-0.1495,-0.1495,-0.1495,-0.1495,-0.1496,-0.176,-0.1744,-0.1721,-0.1698,-0.1681,-0.1663,-0.1647,-0.1632,-0.1612,-0.1586,-0.158,-0.1555,-0.1535,-0.1504,-0.1491,-0.1472,-0.1475,-0.1469,-0.1467,-0.1466,-0.1466,-0.1501,-0.1468,-0.1468,-0.1468,-0.1468,-0.1468,0,-0.1732,-0.1717,-0.1695,-0.1668,-0.1649,-0.1646,-0.1625,-0.161,-0.1588,-0.1569,-0.155,-0.1523,-0.1501,-0.1484,-0.1461,-0.1449,-0.1448,-0.1444,-0.1445,-0.1443,-0.1464,-0.147,-0.1446,-0.1446,-0.1446,-0.1446,-0.1446,-0.1446,-0.1715,-0.1686,-0.1677,-0.1641,-0.1627,-0.1602,-0.159,-0.1574,-0.1559,-0.1528,-0.1509,-0.1498,-0.1481,-0.1457,-0.1437,-0.1433,-0.1425,-0.1422,-0.1418,-0.1438,-0.1441,-0.1443,-0.1449,-0.142,-0.142,-0.1397,-0.1397,-0.1397]},{"header":{"parameterUnit":"m.s-1","parameterCategory":1,"la1":30.2991,"la2":30.254,"lo1":-89.0895,"lo2":-89.0444,"dy":0.0017,"dx":0.0017,"nx":28,"ny":28,"refTime":"2025-03-11T09:00:00:Z","depth":0,"parameterNumber":3,"parameterNumberName":"V-component_of_WINDS"},"data":[0,0,0,0,0,0,0,0,0,0,0,0,0,0,0,0,0,0,0,0,0,0,0,0,0,0,0,0,0,0,0,0,0,0,0,0,0,0,0,0,0,0,0,0,0,0,0,0,0,0,0,0,0,0,0,0,0,0,4.1411,4.1411,0,4.1452,4.1452,4.1453,4.1408,4.1406,4.1404,4.1403,4.144,4.1443,4.1446,0,0,0,0,0,0,0,0,0,0,0,0,0,4.129,4.1292,4.1411,4.1411,4.1412,4.1452,4.1452,4.1453,4.1408,4.1406,4.1404,4.1402,4.144,4.1443,4.1446,0,0,0,0,0,0,0,0,0,0,0,0,0,4.1338,4.1293,4.1411,4.1394,4.1393,4.1452,4.1452,4.1453,4.1408,4.1406,4.1403,4.1401,4.1439,4.1442,4.1446,4.1522,0,0,4.1458,4.146,0,0,0,0,0,0,0,0,4.1335,4.1342,4.1396,4.1396,4.1394,4.1422,4.1424,4.1476,4.1409,4.1403,4.1403,4.14,4.1436,4.144,4.1453,4.1523,4.1525,4.1459,4.1461,4.1463,4.1464,0,0,0,0,0,0,0,4.1332,4.134,4.1427,4.1397,4.1396,4.1384,4.1388,4.1433,4.1433,4.1403,4.14,4.1405,4.1435,4.145,4.1454,4.1526,4.1458,4.1462,4.1464,4.1466,4.1661,4.1663,0,0,0,0,0,0,4.1331,4.1337,4.1426,4.1428,4.1358,4.1388,4.1392,4.1416,4.1432,4.1433,4.1408,4.1403,4.1444,4.1449,4.1455,4.1545,4.1463,4.1466,4.1468,4.1658,4.1661,4.1664,0,0,0,0,0,0,4.1328,4.1339,4.1424,4.1382,4.1392,4.1393,4.1419,4.1418,4.1432,4.1436,4.1435,4.1423,4.1442,4.145,4.1506,4.1546,4.1468,4.1471,4.1655,4.1659,4.1663,4.1726,0,0,0,0,0,0,4.1325,4.1338,4.1368,4.1383,4.1394,4.1475,4.1422,4.1421,4.144,4.1434,4.145,4.145,4.1441,4.15,4.151,4.155,4.1475,4.1651,4.1657,4.1662,4.1721,4.1732,4.1742,0,0,0,0,0,4.1321,4.1383,4.137,4.138,4.1431,4.1478,4.1484,4.1474,4.1443,4.1472,4.1475,4.145,4.154,4.1507,4.1517,4.1559,4.1648,4.1655,4.1661,4.1716,4.173,4.1742,0,0,0,0,0,0,4.137,4.1384,4.137,4.1439,4.1458,4.147,4.1507,4.1489,4.1515,4.1509,4.1493,4.1497,4.1558,4.1563,4.1526,4.1633,4.1589,4.1598,4.1627,4.1641,4.1651,4.1649,4.1478,0,0,0,0,0,4.1389,4.1427,4.1437,4.1497,4.1507,4.1506,4.1525,4.1516,4.1534,4.1541,4.1548,4.1565,4.1598,4.1619,4.1649,4.1721,4.1724,4.1755,4.1766,4.1775,4.1783,4.1822,4.1836,4.1685,4.1685,4.1685,0,0,4.1428,4.1441,4.1466,4.1507,4.1521,4.1559,4.1512,4.1555,4.1583,4.1547,4.1602,4.1607,4.1626,4.1691,4.172,4.1698,4.1825,4.1783,4.179,4.1793,4.183,4.1845,4.1857,4.169,4.1689,4.1688,0,0,4.152,4.1534,4.1586,4.1601,4.1623,4.1622,4.1634,4.165,4.1653,4.1708,4.1682,4.1715,4.177,4.1785,4.18,4.19,4.1878,4.191,4.1966,4.2005,4.2017,4.2027,4.2063,4.2077,4.1917,4.1917,4.1918,0,4.1566,4.1625,4.1614,4.166,4.1679,4.165,4.1702,4.1717,4.1747,4.176,4.1735,4.1807,4.1817,4.1885,4.191,4.1923,4.1936,4.1908,4.2016,4.2026,4.2036,4.207,4.2084,4.1921,4.1921,4.192,4.192,0,4.1681,4.1722,4.1761,4.1794,4.1817,4.1865,4.1861,4.1886,4.1875,4.1876,4.1932,4.1944,4.1977,4.1992,4.198,4.2059,4.2045,4.2019,4.1974,4.2054,4.2087,4.21,4.1927,4.1925,4.1924,4.1923,0,0,4.1804,4.1831,4.1846,4.1861,4.1884,4.1915,4.1962,4.1996,4.2018,4.2039,4.2078,4.2127,4.2103,4.212,4.211,4.2144,4.2224,4.2113,4.2113,4.2134,4.2313,4.2333,4.2349,4.2209,4.2212,4.2213,4.2311,0,4.1897,4.1982,4.1974,4.2053,4.2092,4.2065,4.2106,4.2124,4.2127,4.2159,4.216,4.2196,4.2161,4.2172,4.2204,4.2207,4.2259,4.22,4.2245,4.2247,4.2242,4.2365,4.2387,4.2479,4.2324,4.2326,4.2327,0,4.2017,4.2046,4.213,4.2149,4.2165,4.2202,4.2233,4.2264,4.2284,4.2283,4.2303,4.2288,4.2334,4.2289,4.2353,4.2313,4.2331,4.2336,4.2339,4.2343,4.2293,4.2374,4.2508,4.2522,4.2347,4.2345,4.2344,0,4.2101,4.216,4.2218,4.2231,4.2254,4.2281,4.2292,4.2309,4.2331,4.2357,4.2371,4.2401,4.2419,4.2443,4.2435,4.2403,4.2502,4.2455,4.2503,4.2503,4.2525,4.2524,4.2665,4.2535,4.2535,4.2535,4.2535,0,4.2206,4.2259,4.2256,4.2292,4.235,4.2341,4.2398,4.2405,4.2421,4.2457,4.2435,4.2469,4.2457,4.2491,4.2485,4.254,4.2547,4.2548,4.2546,4.2551,4.2551,4.2563,4.2556,4.2539,4.2538,4.2537,4.2536,0,4.2309,4.2309,4.2371,4.2389,4.2394,4.2437,4.2451,4.2484,4.2485,4.2532,4.2542,4.2543,4.2582,4.2577,4.2619,4.2615,4.2684,4.2674,4.2678,4.2676,4.2724,4.272,4.2878,4.2899,4.2755,4.2757,4.2758,0,4.2376,4.2417,4.2439,4.2463,4.2476,4.2514,4.2537,4.2528,4.2552,4.2579,4.2609,4.2646,4.2675,4.2737,4.2741,4.2774,4.2765,4.2818,4.2769,4.2773,4.2767,4.2765,4.2769,4.2828,4.2829,4.2831,4.2832,0,4.2497,4.2496,4.253,4.2565,4.2593,4.2619,4.2643,4.2663,4.2657,4.2685,4.2725,4.2748,4.2792,4.2829,4.286,4.2869,4.285,4.2847,4.286,4.2865,4.2867,4.2868,4.2705,4.2843,4.2842,4.2841,4.2841,4.284,4.2585,4.262,4.2642,4.2681,4.2699,4.2722,4.2755,4.2762,4.2796,4.2833,4.2825,4.287,4.289,4.293,4.2942,4.2977,4.2957,4.2976,4.298,4.2985,4.2992,4.2861,4.2982,4.2982,4.2981,4.2981,4.2981,0,4.2705,4.2719,4.2755,4.279,4.2821,4.2802,4.2828,4.2854,4.2895,4.2916,4.2946,4.2992,4.3028,4.3036,4.307,4.3096,4.3088,4.3106,4.3104,4.3107,4.3006,4.2993,4.3112,4.3112,4.3112,4.3112,4.3112,4.3112,4.2771,4.2831,4.2832,4.29,4.2913,4.2959,4.2975,4.2997,4.3013,4.3067,4.3098,4.3103,4.3118,4.3154,4.3186,4.3187,4.3201,4.3222,4.322,4.3126,4.3113,4.3101,4.3088,4.3225,4.3225,4.3317,4.3318,4.3319]}]]